TimeCDT,TemperatureF,Dew PointF,Humidity,Sea Level PressureIn,VisibilityMPH,Wind Direction,Wind SpeedMPH,Gust SpeedMPH,PrecipitationIn,Events,Conditions,WindDirDegrees,DateUTC
12:15 AM,14.5,1.6,57,30.05,10.0,NW,10.4,-,N/A,,Clear,310,2013-03-21 05:15:00
12:35 AM,13.8,2.3,60,30.05,10.0,NW,6.9,-,N/A,,Clear,310,2013-03-21 05:35:00
1:15 AM,13.1,2.1,62,30.05,10.0,NW,6.9,-,N/A,,Clear,310,2013-03-21 06:15:00
1:35 AM,12.7,2.1,63,30.05,10.0,NW,4.6,-,N/A,,Clear,310,2013-03-21 06:35:00
1:55 AM,12.0,1.4,62,30.05,10.0,WNW,4.6,-,N/A,,Clear,300,2013-03-21 06:55:00
2:15 AM,11.7,1.8,65,30.04,10.0,WNW,4.6,-,N/A,,Clear,290,2013-03-21 07:15:00
2:35 AM,11.1,1.4,65,30.04,10.0,WNW,4.6,-,N/A,,Clear,290,2013-03-21 07:35:00
3:15 AM,11.3,1.4,64,30.03,10.0,WNW,6.9,-,N/A,,Clear,300,2013-03-21 08:15:00
3:35 AM,11.8,1.8,64,30.02,10.0,WNW,6.9,-,N/A,,Clear,300,2013-03-21 08:35:00
3:55 AM,12.0,1.8,64,30.02,10.0,WNW,6.9,-,N/A,,Clear,300,2013-03-21 08:55:00
4:15 AM,12.2,1.8,63,30.02,10.0,WNW,6.9,-,N/A,,Clear,300,2013-03-21 09:15:00
4:35 AM,11.3,1.9,66,30.02,10.0,WNW,8.1,-,N/A,,Clear,290,2013-03-21 09:35:00
4:55 AM,11.3,2.1,67,30.02,10.0,WNW,5.8,-,N/A,,Clear,290,2013-03-21 09:55:00
5:15 AM,11.3,1.9,66,30.03,10.0,NW,3.5,-,N/A,,Clear,310,2013-03-21 10:15:00
5:35 AM,10.9,2.1,68,30.02,10.0,WNW,3.5,-,N/A,,Clear,290,2013-03-21 10:35:00
5:55 AM,10.4,1.9,69,30.03,10.0,West,5.8,-,N/A,,Clear,280,2013-03-21 10:55:00
6:15 AM,10.2,1.9,69,30.02,10.0,West,5.8,-,N/A,,Clear,260,2013-03-21 11:15:00
6:35 AM,9.5,2.1,72,30.03,10.0,West,5.8,-,N/A,,Clear,280,2013-03-21 11:35:00
6:55 AM,9.7,2.1,71,30.02,10.0,West,4.6,-,N/A,,Clear,280,2013-03-21 11:55:00
7:15 AM,10.0,2.3,71,30.03,10.0,WNW,5.8,-,N/A,,Clear,290,2013-03-21 12:15:00
7:35 AM,10.6,2.5,70,30.03,10.0,West,12.7,-,N/A,,Clear,280,2013-03-21 12:35:00
7:55 AM,11.1,2.8,69,30.04,10.0,WNW,8.1,-,N/A,,Clear,290,2013-03-21 12:55:00
8:15 AM,12.2,3.2,67,30.04,10.0,WNW,6.9,-,N/A,,Clear,290,2013-03-21 13:15:00
8:35 AM,13.6,3.9,65,30.05,10.0,WNW,8.1,-,N/A,,Clear,290,2013-03-21 13:35:00
8:55 AM,14.9,4.6,64,30.05,10.0,West,8.1,-,N/A,,Clear,280,2013-03-21 13:55:00
9:15 AM,16.7,5.0,60,30.04,10.0,WNW,6.9,-,N/A,,Clear,300,2013-03-21 14:15:00
9:35 AM,18.1,5.9,59,30.04,10.0,NW,10.4,-,N/A,,Clear,320,2013-03-21 14:35:00
9:55 AM,19.2,6.1,57,30.04,10.0,NW,11.5,-,N/A,,Clear,310,2013-03-21 14:55:00
10:15 AM,20.1,6.4,55,30.04,10.0,WNW,9.2,-,N/A,,Clear,300,2013-03-21 15:15:00
10:35 AM,21.2,7.0,54,30.04,10.0,NNW,10.4,-,N/A,,Clear,330,2013-03-21 15:35:00
10:55 AM,22.1,7.3,53,30.05,10.0,NW,8.1,-,N/A,,Clear,310,2013-03-21 15:55:00
11:15 AM,23.0,8.1,53,30.05,10.0,NNW,9.2,-,N/A,,Clear,330,2013-03-21 16:15:00
11:35 AM,23.4,7.3,50,30.05,10.0,NNW,9.2,-,N/A,,Clear,330,2013-03-21 16:35:00
11:55 AM,23.9,7.9,51,30.05,10.0,NNW,9.2,-,N/A,,Clear,330,2013-03-21 16:55:00
12:15 PM,24.8,8.4,50,30.04,10.0,NNW,8.1,-,N/A,,Clear,330,2013-03-21 17:15:00
12:35 PM,25.3,8.6,49,30.04,10.0,NNW,5.8,-,N/A,,Clear,340,2013-03-21 17:35:00
12:55 PM,26.1,7.3,45,30.04,10.0,NNW,3.5,-,N/A,,Clear,340,2013-03-21 17:55:00
1:15 PM,26.6,8.6,47,30.04,10.0,NNW,6.9,-,N/A,,Clear,330,2013-03-21 18:15:00
1:35 PM,26.8,7.9,45,30.03,10.0,North,5.8,-,N/A,,Clear,360,2013-03-21 18:35:00
1:55 PM,28.0,9.9,47,30.03,10.0,NW,5.8,-,N/A,,Clear,310,2013-03-21 18:55:00
2:15 PM,28.0,8.6,44,30.02,10.0,NNW,5.8,-,N/A,,Clear,330,2013-03-21 19:15:00
2:35 PM,28.6,9.0,44,30.02,10.0,WNW,5.8,-,N/A,,Clear,300,2013-03-21 19:35:00
2:55 PM,28.8,8.2,42,30.01,10.0,Calm,Calm,-,N/A,,Clear,0,2013-03-21 19:55:00
3:15 PM,29.3,8.4,42,30.01,10.0,WNW,8.1,-,N/A,,Clear,300,2013-03-21 20:15:00
3:35 PM,29.8,8.8,41,30.01,10.0,NW,5.8,-,N/A,,Clear,310,2013-03-21 20:35:00
3:55 PM,30.2,9.1,41,30.01,10.0,West,8.1,-,N/A,,Clear,270,2013-03-21 20:55:00
4:15 PM,30.2,7.9,39,30.00,10.0,WNW,5.8,-,N/A,,Clear,300,2013-03-21 21:15:00
4:35 PM,30.2,9.9,43,30.00,10.0,NW,4.6,-,N/A,,Clear,320,2013-03-21 21:35:00
4:55 PM,30.2,8.8,41,30.00,10.0,NW,3.5,-,N/A,,Clear,320,2013-03-21 21:55:00
5:15 PM,30.2,10.2,43,29.99,10.0,West,3.5,-,N/A,,Clear,270,2013-03-21 22:15:00
5:35 PM,30.0,8.6,41,29.99,10.0,WNW,5.8,-,N/A,,Clear,290,2013-03-21 22:35:00
5:55 PM,29.7,9.7,43,29.99,10.0,WNW,6.9,-,N/A,,Clear,290,2013-03-21 22:55:00
6:15 PM,29.3,10.6,46,29.99,10.0,WNW,4.6,-,N/A,,Clear,290,2013-03-21 23:15:00
6:35 PM,28.8,9.0,43,29.99,10.0,WNW,5.8,-,N/A,,Clear,290,2013-03-21 23:35:00
6:55 PM,27.9,10.2,48,29.99,10.0,WNW,3.5,-,N/A,,Clear,300,2013-03-21 23:55:00
7:15 PM,25.5,13.6,61,30.00,10.0,West,4.6,-,N/A,,Clear,280,2013-03-22 00:15:00
7:35 PM,24.4,13.1,62,30.00,10.0,North,3.5,-,N/A,,Clear,360,2013-03-22 00:35:00
7:55 PM,25.5,10.9,54,30.00,10.0,Calm,Calm,-,N/A,,Clear,0,2013-03-22 00:55:00
8:15 PM,22.1,14.2,72,30.00,10.0,Calm,Calm,-,N/A,,Clear,0,2013-03-22 01:15:00
8:35 PM,21.9,13.1,69,30.01,10.0,Calm,Calm,-,N/A,,Clear,0,2013-03-22 01:35:00
8:55 PM,21.0,12.4,69,30.02,10.0,NW,3.5,-,N/A,,Clear,310,2013-03-22 01:55:00
9:15 PM,20.3,12.2,71,30.02,10.0,Calm,Calm,-,N/A,,Clear,0,2013-03-22 02:15:00
9:35 PM,20.3,11.8,70,30.02,10.0,Calm,Calm,-,N/A,,Clear,0,2013-03-22 02:35:00
9:55 PM,18.3,10.6,72,30.02,10.0,Calm,Calm,-,N/A,,Clear,0,2013-03-22 02:55:00
10:15 PM,19.6,9.9,66,30.02,10.0,Calm,Calm,-,N/A,,Clear,0,2013-03-22 03:15:00
10:35 PM,17.8,10.2,72,30.02,10.0,West,3.5,-,N/A,,Clear,280,2013-03-22 03:35:00
10:55 PM,16.5,9.9,75,30.02,10.0,Calm,Calm,-,N/A,,Clear,0,2013-03-22 03:55:00
11:15 PM,17.8,10.0,72,30.02,10.0,Calm,Calm,-,N/A,,Clear,0,2013-03-22 04:15:00
11:35 PM,15.8,9.0,74,30.03,10.0,Calm,Calm,-,N/A,,Clear,0,2013-03-22 04:35:00
11:55 PM,16.0,8.6,73,30.02,10.0,Calm,Calm,-,N/A,,Clear,0,2013-03-22 04:55:00